SCP
0 0 0 0 0 0 0 0 0 0 0 0 0 0 0 0 0 0 0 0 0 0 0 0 0 0 0 0 0 0 0 0 0 0 0 0 0 0 -0 0 0 0 0 0
0 0 0 0 0 0 0 0 0 0 0 0 0 0 0 0 0 0 0 0 0 0 -0 0 0 0 0 0 0 0 0 0 0 0 0 0 0 0 0 0 0 0 0 0
0 0 0 0 0 0 0 0 0 0 0 0 0 0 0 0 0 0 0 0 0 0 0 -0 -0 0 0 0 0 0 0 0 0 0 0 0 0 0 0 0 0 0 0 0
0 0 0 0 0 0 0 0 0 0 0 0 0 0 0 0 0 0 0 0 0 0 0 0 0 0 0 0 0 0 0 0 0 0 0 0 0 0 0 0 0 0 0 0
0 0 0 0 0 0 0 0 0 0 0 0 0 0 0 0 0 0 0 0 0 0 0 0 0 0 0 0 0 0 0 0 0 0 0 0 0 0 0 0 0 0 0 0
0 0 0 0 0 0 0 0 0 0 0 0 0 0 0 0 0 0 0 0 0 0 0 0 -0 0 0 0 0 0 0 0 0 0 0 0 0 0 0 0 0 0 0 0
0 0 0 0 0 0 0 0 0 0 0 0 0 0 0 0 0 0 0 0 0 0 0 -0 -0 -0 -0 0 0 0 0 0 0 0 -0 -0 0 0 0 0 0 0 0 0
0 0 0 0 0 0 0 0 0 0 0 0 0 0 0 0 0 0 0 0 0 0 0 0 -0 0 0 0 0 0 0 0 0 0 0 0 0 0 0 0 0 0 0 0
0 0 0 0 0 0 0 0 0 0 0 0 0 0 0 0 0 0 0 0 0 0 -0 0 0 -0 0 0 -0 0 0 0 0 0 0 0 0 0 0 0 0 0 0 0
0 0 0 0 0 0 0 0 0 0 0 0 0 0 0 0 0 0 0 0 0 0 0 -0 -0 0 0 0 0 0 -0 0 0 0 0 0 0 0 0 0 0 0 0 0
0 0 0 0 0 0 0 0 0 0 0 0 0 0 0 0 0 0 0 0 0 0 -0 -0 -0 -0 0 0 -0 -0 0 -0 0 0 0 0 0 0 0 0 0 0 0 0
0 0 0 0 0 0 0 0 0 0 0 0 0 0 0 0 0 0 0 0 0 0 -0 -0 -0 -0 -0 -0 -0 -0 -0 -0 -0 -0 -0 0 0 0 0 0 0 0 0 0
0 0 0 0 0 0 0 0 0 0 0 0 -0 -0 0 0 0 0 -0 -0 0 0 0 -0 -0 -0 -0 -0 0 -0 -0 -0 -0 -0 -0 -0 -0 0 0 0 0 0 0 0
0 0 0 0 0 0 0 0 0 0 0 -0 -0 0 -0 -0 -0 -0 -0 -0 -0 -0 0 0 -0 0 -0 -0 -0 0 -0 0 -0 -0 -0 -0 -0 -0 0 0 0 0 0 0
0 0 0 0 0 0 0 0 0 0 0 -0 -0 -0 -0 -0 -0 -0 -0 -0 -0 -0 -0 -0 0 -0 -0 -0 -0 -0 0 0 -0 -0 -0 -0 -0 0 -0 -0 -0 0 0 0
0 0 0 0 0 0 0 0 0 0 0 -0 0 -0 -0 0 -0 -0 -0 -0 -0 -0 -0 -0 -0 -0 -0 0 0 0 -0 -0 -0 -0 -0 -0 -0 -0 -0 -0 -0 -0 0 0
0 0 0 0 0 0 0 0 0 0 0 0 -0 -0 0 0 -0 -0 -0 -0 -0 -0 -0 -0 -0 -0 -0 -0 -0 -0 -0 -0 -0 -0 -0 -0 -0 -0 -0 -0 0 0 0 0
0 0 0 0 0 0 0 0 0 0 0 0 0 -0 -0 -0 -0 -0 -0 -0 -0 -0 -0 -0 -0 -0 -0 -0 -0 -0 -0 -0 -0 -0 -0 -0 -0 -0 -0 0 0 0 0 0
0 0 0 0 0 0 0 0 0 0 0 0 -0 0 0 0 0 -0 -0 -0 -0 -0 -0 -0 -0 -0 -0 -0 -0 -0 -0 -0 -0 -0 -0 -0 -0 -0 0 0 0 0 0 0
0 0 0 0 0 0 -0 0 0 0 0 0 -0 -0 -0 0 0 0 -0 -0 -0 -0 -0 -0 -0 -0 -0 -0 -0 -0 -0 -0 -0 -0 0 0 0 0 0 0 0 0 0 0
0 0 0 0 0 0 0 0 0 0 0 0 0 0 -0 -0 0 0 -0 -0 -0 -0 -0 -0 -0 -0 -0 -0 -0 -0 -0 -0 0 0 0 0 0 0 0 0 0 0 0 0
0 0 0 0 0 0 0 0 0 0 0 0 0 0 -0 0 0 -0 -0 -0 -0 -0 -0 -0 -0 0 0 -0 -0 -0 -0 0 0 0 0 0 0 0 0 0 0 0 0 0
0 0 0 0 0 0 0 0 0 0 0 0 0 0 0 0 0 -0 0 -0 -0 -0 -0 -0 -0 0 0 0 0 -0 -0 0 0 0 0 0 0 0 0 0 0 0 0 0
0 0 0 0 0 0 0 0 0 0 0 0 0 0 0 0 0 0 0 -0 -0 -0 -0 0 0 -0 0 0 0 0 0 0 0 0 0 0 0 0 0 0 0 0 0 0
0 0 0 0 0 0 0 0 0 0 0 0 0 0 0 0 0 0 0 -0 0 0 0 0 -0 -0 -0 0 0 0 0 0 0 0 0 0 0 0 0 0 0 0 0 0
0 0 0 0 0 0 0 0 0 0 0 0 0 0 0 0 0 0 0 0 0 0 0 0 0 -0 0 0 0 0 0 0 0 0 0 0 0 0 0 0 0 0 0 0
Wind_Speed_500mb
2 3 11 17 10 5 6 5 8 7 9 5 9 15 20 14 8 7 26 39 44 45 51 48 46 32 31 32 40 46 51 54 55 52 21 17 25 43 61 57 62 62 64 60
4 12 16 8 9 8 5 4 8 9 6 6 8 23 5 9 5 10 24 40 46 55 51 45 34 15 18 25 34 38 49 56 59 51 22 20 28 47 54 52 60 59 61 59
11 7 9 10 8 10 7 8 7 10 4 2 10 8 4 5 6 11 27 27 37 43 44 40 23 9 11 15 19 33 38 39 49 54 27 22 38 44 54 51 54 55 56 58
11 8 12 9 9 10 5 9 7 4 2 5 6 7 3 5 1 10 24 24 44 40 37 32 25 15 7 7 14 25 29 37 40 43 45 41 34 33 45 49 45 46 46 51
11 9 8 7 10 13 10 5 4 3 5 1 1 3 5 1 5 11 22 30 35 37 36 39 28 25 21 17 12 8 13 23 22 26 30 46 46 37 40 42 47 41 41 47
9 3 9 12 5 7 11 8 9 6 3 3 4 5 6 6 4 6 14 22 24 30 32 35 33 28 30 22 15 14 12 14 16 18 20 17 32 30 39 35 50 34 34 35
1 7 5 8 9 4 6 7 3 1 1 6 3 1 11 9 10 9 8 15 21 25 27 32 31 32 29 25 23 19 14 15 12 11 7 10 18 21 35 47 47 35 41 58
13 7 16 10 10 12 8 10 8 8 5 4 2 9 3 9 16 9 3 10 9 15 19 26 27 25 28 27 25 22 20 20 14 11 14 15 17 35 27 25 28 32 33 48
9 7 4 4 6 7 8 7 6 12 3 2 4 9 5 12 10 10 10 8 6 10 11 13 20 24 22 19 17 18 19 26 26 24 20 25 24 20 20 23 30 33 32 30
11 6 1 7 10 12 5 16 6 3 6 6 6 9 6 11 17 16 17 14 6 2 4 6 13 19 18 21 22 17 12 15 19 23 27 30 35 29 24 26 26 23 19 24
11 5 4 8 10 16 5 5 7 6 3 5 3 9 11 15 19 24 22 22 16 7 4 6 13 16 16 19 20 21 19 18 19 27 30 34 28 29 33 36 30 24 22 17
12 9 7 10 3 8 7 11 11 7 9 1 1 10 5 11 17 27 27 26 19 11 9 9 15 16 17 18 19 22 26 27 25 27 26 34 36 34 35 31 25 22 24 22
18 6 5 6 5 0 9 10 7 9 6 12 10 8 4 8 14 22 33 28 26 19 15 16 20 23 23 24 24 27 29 29 26 26 25 24 31 30 36 39 39 34 27 26
27 8 12 15 10 10 12 13 13 10 8 12 13 5 10 17 20 26 32 34 36 30 29 27 25 25 23 17 20 28 32 30 28 31 35 35 33 30 32 31 30 28 23 23
12 14 11 7 3 7 10 17 25 24 13 14 9 21 19 24 29 43 47 45 42 41 39 37 32 28 25 22 24 21 22 26 24 24 28 28 29 27 28 27 27 28 26 26
4 10 10 8 11 8 6 10 28 25 6 18 5 16 15 6 30 36 50 57 50 53 48 44 39 35 32 29 25 23 28 31 30 30 32 33 31 29 28 27 25 25 29 28
19 14 9 7 9 11 10 30 25 15 13 23 20 21 12 10 21 44 57 68 68 66 60 55 49 44 39 33 29 30 38 40 38 36 35 32 30 29 28 27 28 29 27 26
16 14 5 7 8 10 9 2 22 35 10 26 10 15 24 23 48 51 63 68 71 68 65 61 57 52 47 41 36 37 39 40 38 34 33 30 26 24 26 27 25 24 21 17
5 12 7 11 9 8 6 11 16 19 21 42 46 19 25 20 16 26 55 62 57 65 62 57 54 56 49 47 45 45 44 41 35 30 27 25 22 21 22 22 21 19 17 16
7 8 8 8 12 16 16 8 24 11 11 22 50 29 23 32 9 16 56 60 58 56 59 59 57 55 48 49 49 49 46 43 37 31 27 24 22 18 19 19 19 18 14 10
8 4 16 8 7 11 11 12 25 12 13 13 51 42 51 21 25 4 39 55 57 54 59 59 61 60 54 53 52 51 47 43 36 34 31 27 24 21 18 18 17 14 12 9
17 15 9 5 7 11 22 16 18 15 5 19 42 60 67 46 37 17 37 56 62 61 62 62 63 61 57 55 54 53 49 43 41 37 34 30 26 21 18 17 15 14 11 10
9 15 15 18 13 5 54 6 31 8 12 17 39 54 61 58 43 33 44 56 63 64 65 63 62 60 60 59 57 55 50 51 47 43 39 34 29 25 21 19 18 16 14 13
7 5 9 10 13 14 39 51 36 15 11 17 29 48 58 66 53 39 35 50 60 63 65 64 63 63 63 61 57 51 50 51 49 45 43 40 36 31 28 24 21 19 16 15
10 19 12 6 4 5 15 57 43 42 21 21 31 44 54 58 52 48 42 42 52 58 62 62 63 64 63 59 56 55 56 55 52 48 46 44 40 34 28 23 17 16 17 17
13 14 23 17 24 20 25 75 56 56 48 35 41 46 50 53 53 49 47 42 42 54 58 60 60 62 61 60 58 58 60 59 56 54 53 48 43 37 33 28 25 23 23 22
Wind_Direction_500mb
128 146 213 216 194 154 148 183 246 248 265 259 257 273 282 221 215 346 341 327 327 327 325 325 319 292 262 245 235 234 215 195 200 218 224 234 190 193 210 193 184 195 196 187
40 239 228 177 159 165 167 222 258 287 244 240 294 287 303 179 115 46 340 336 333 328 330 329 319 285 256 246 240 224 201 195 203 212 215 247 201 201 191 186 184 198 197 189
182 219 104 150 156 164 201 196 206 232 317 240 314 286 70 69 97 333 349 339 338 334 330 335 347 344 280 251 202 183 182 199 206 212 209 209 193 172 183 184 191 197 198 196
236 254 188 163 193 148 238 195 195 201 25 260 350 292 294 155 272 352 324 1 357 353 6 6 17 17 22 127 148 181 189 199 204 215 211 204 185 164 176 189 194 199 206 199
243 187 163 163 197 169 214 126 141 146 186 332 255 206 255 175 232 327 336 8 3 9 31 31 44 62 74 95 122 157 183 189 198 209 217 209 214 202 189 191 200 204 215 214
232 246 177 192 101 160 137 102 58 63 120 230 213 206 261 189 217 302 318 11 1 17 42 49 52 73 75 85 107 126 145 165 170 194 202 219 223 217 203 188 200 204 235 220
334 216 189 144 98 42 91 85 323 143 214 237 139 230 254 171 193 198 307 23 356 21 40 56 59 65 75 81 82 95 127 145 157 165 158 200 212 203 194 189 190 187 191 199
169 258 170 183 175 181 174 163 160 212 214 265 310 232 230 161 172 180 252 75 10 23 55 74 74 75 81 76 75 74 88 101 108 120 150 158 177 175 186 207 190 183 196 197
151 265 110 87 129 148 176 190 134 107 57 284 238 270 200 155 193 189 162 89 35 10 51 75 95 96 96 93 93 93 101 96 99 111 144 141 148 160 166 185 180 186 186 188
207 118 147 141 95 40 175 146 120 54 163 245 264 271 229 191 183 186 161 150 145 244 17 74 102 107 112 114 117 130 146 114 111 119 116 126 124 129 153 168 185 190 199 195
138 115 183 127 204 170 145 186 67 116 156 191 273 256 203 172 166 177 170 162 168 195 191 154 132 131 130 129 134 134 124 119 124 133 130 125 120 120 130 132 130 137 151 167
178 130 173 186 223 177 177 179 159 149 187 106 297 272 143 166 160 161 165 163 170 178 164 155 150 143 132 124 122 123 124 128 122 124 126 139 132 140 144 140 126 151 162 166
178 172 104 26 1 131 206 192 140 111 114 189 161 256 144 160 161 167 159 166 170 167 160 146 142 137 127 120 117 115 124 126 126 139 138 144 146 150 144 134 133 130 132 140
138 144 166 190 191 139 189 177 174 145 163 165 223 251 224 206 193 178 174 172 172 173 164 154 149 145 139 132 130 124 120 118 121 123 125 128 124 127 126 122 121 126 134 148
144 185 171 215 165 151 170 174 180 202 181 187 208 206 219 210 201 191 183 172 176 176 178 175 173 167 155 137 142 139 136 134 138 139 140 137 135 139 139 133 129 124 128 135
221 165 145 210 196 205 232 191 196 212 213 262 202 254 217 206 197 174 184 180 182 183 183 180 182 174 167 161 159 157 149 141 135 132 128 124 127 126 117 112 117 128 143 137
159 139 139 211 131 130 272 219 190 198 207 206 211 229 156 181 198 187 187 191 190 186 186 187 186 184 179 173 170 168 156 148 148 148 144 141 138 135 130 130 132 139 136 134
149 129 111 133 129 219 241 110 199 206 208 212 221 182 181 198 210 205 200 196 199 196 190 191 187 187 182 180 179 172 163 156 157 156 150 144 138 135 134 137 144 143 141 141
244 132 132 149 194 296 234 199 158 173 250 206 220 188 190 188 184 226 212 207 204 200 195 192 188 187 185 178 181 175 171 168 167 163 156 147 141 140 141 147 148 146 145 148
92 24 125 157 164 204 220 188 173 163 288 196 200 189 157 150 185 228 209 207 204 203 196 191 188 188 189 183 183 181 179 176 175 172 165 158 153 154 155 157 154 150 145 138
129 84 188 160 188 277 240 148 153 140 236 165 187 176 159 186 199 219 194 196 197 192 190 188 189 190 189 188 186 187 187 184 178 178 175 172 168 166 165 166 164 164 162 162
160 151 174 121 123 238 154 115 169 216 204 177 178 185 186 193 192 208 182 187 185 186 188 190 191 192 192 193 192 192 192 185 186 186 184 183 180 177 177 179 183 181 186 189
185 191 174 181 190 233 184 184 191 186 181 187 182 187 193 184 183 171 174 181 185 188 190 193 195 194 196 197 198 198 193 192 193 193 192 192 190 189 190 193 195 199 203 205
241 176 164 125 209 221 200 214 206 212 200 195 184 184 186 185 181 171 170 183 188 191 194 195 197 201 201 201 203 203 200 199 201 200 199 199 200 199 197 197 199 202 208 214
174 144 160 268 280 66 236 219 215 213 207 184 176 183 185 187 185 186 180 183 191 195 198 201 204 206 207 206 206 206 203 206 206 207 208 208 207 206 206 205 208 209 209 213
189 171 188 208 179 175 222 223 216 214 212 194 181 179 187 190 191 187 188 186 189 196 200 203 209 214 214 211 212 212 209 211 212 212 212 213 215 214 215 216 217 219 219 222
Wind_Speed_850mb
2 3 11 17 10 5 6 5 8 7 9 5 9 15 20 14 8 7 26 39 44 45 51 48 46 32 31 32 40 46 51 54 55 52 21 17 25 43 61 57 62 62 64 60
4 12 16 8 9 8 5 4 8 9 6 6 8 23 5 9 5 10 24 40 46 55 51 45 34 15 18 25 34 38 49 56 59 51 22 20 28 47 54 52 60 59 61 59
11 7 9 10 8 10 7 8 7 10 4 2 10 8 4 5 6 11 27 27 37 43 44 40 23 9 11 15 19 33 38 39 49 54 27 22 38 44 54 51 54 55 56 58
11 8 12 9 9 10 5 9 7 4 2 5 6 7 3 5 1 10 24 24 44 40 37 32 25 15 7 7 14 25 29 37 40 43 45 41 34 33 45 49 45 46 46 51
11 9 8 7 10 13 10 5 4 3 5 1 1 3 5 1 5 11 22 30 35 37 36 39 28 25 21 17 12 8 13 23 22 26 30 46 46 37 40 42 47 41 41 47
9 3 9 12 5 7 11 8 9 6 3 3 4 5 6 6 4 6 14 22 24 30 32 35 33 28 30 22 15 14 12 14 16 18 20 17 32 30 39 35 50 34 34 35
1 7 5 8 9 4 6 7 3 1 1 6 3 1 11 9 10 9 8 15 21 25 27 32 31 32 29 25 23 19 14 15 12 11 7 10 18 21 35 47 47 35 41 58
13 7 16 10 10 12 8 10 8 8 5 4 2 9 3 9 16 9 3 10 9 15 19 26 27 25 28 27 25 22 20 20 14 11 14 15 17 35 27 25 28 32 33 48
9 7 4 4 6 7 8 7 6 12 3 2 4 9 5 12 10 10 10 8 6 10 11 13 20 24 22 19 17 18 19 26 26 24 20 25 24 20 20 23 30 33 32 30
11 6 1 7 10 12 5 16 6 3 6 6 6 9 6 11 17 16 17 14 6 2 4 6 13 19 18 21 22 17 12 15 19 23 27 30 35 29 24 26 26 23 19 24
11 5 4 8 10 16 5 5 7 6 3 5 3 9 11 15 19 24 22 22 16 7 4 6 13 16 16 19 20 21 19 18 19 27 30 34 28 29 33 36 30 24 22 17
12 9 7 10 3 8 7 11 11 7 9 1 1 10 5 11 17 27 27 26 19 11 9 9 15 16 17 18 19 22 26 27 25 27 26 34 36 34 35 31 25 22 24 22
18 6 5 6 5 0 9 10 7 9 6 12 10 8 4 8 14 22 33 28 26 19 15 16 20 23 23 24 24 27 29 29 26 26 25 24 31 30 36 39 39 34 27 26
27 8 12 15 10 10 12 13 13 10 8 12 13 5 10 17 20 26 32 34 36 30 29 27 25 25 23 17 20 28 32 30 28 31 35 35 33 30 32 31 30 28 23 23
12 14 11 7 3 7 10 17 25 24 13 14 9 21 19 24 29 43 47 45 42 41 39 37 32 28 25 22 24 21 22 26 24 24 28 28 29 27 28 27 27 28 26 26
4 10 10 8 11 8 6 10 28 25 6 18 5 16 15 6 30 36 50 57 50 53 48 44 39 35 32 29 25 23 28 31 30 30 32 33 31 29 28 27 25 25 29 28
19 14 9 7 9 11 10 30 25 15 13 23 20 21 12 10 21 44 57 68 68 66 60 55 49 44 39 33 29 30 38 40 38 36 35 32 30 29 28 27 28 29 27 26
16 14 5 7 8 10 9 2 22 35 10 26 10 15 24 23 48 51 63 68 71 68 65 61 57 52 47 41 36 37 39 40 38 34 33 30 26 24 26 27 25 24 21 17
5 12 7 11 9 8 6 11 16 19 21 42 46 19 25 20 16 26 55 62 57 65 62 57 54 56 49 47 45 45 44 41 35 30 27 25 22 21 22 22 21 19 17 16
7 8 8 8 12 16 16 8 24 11 11 22 50 29 23 32 9 16 56 60 58 56 59 59 57 55 48 49 49 49 46 43 37 31 27 24 22 18 19 19 19 18 14 10
8 4 16 8 7 11 11 12 25 12 13 13 51 42 51 21 25 4 39 55 57 54 59 59 61 60 54 53 52 51 47 43 36 34 31 27 24 21 18 18 17 14 12 9
17 15 9 5 7 11 22 16 18 15 5 19 42 60 67 46 37 17 37 56 62 61 62 62 63 61 57 55 54 53 49 43 41 37 34 30 26 21 18 17 15 14 11 10
9 15 15 18 13 5 54 6 31 8 12 17 39 54 61 58 43 33 44 56 63 64 65 63 62 60 60 59 57 55 50 51 47 43 39 34 29 25 21 19 18 16 14 13
7 5 9 10 13 14 39 51 36 15 11 17 29 48 58 66 53 39 35 50 60 63 65 64 63 63 63 61 57 51 50 51 49 45 43 40 36 31 28 24 21 19 16 15
10 19 12 6 4 5 15 57 43 42 21 21 31 44 54 58 52 48 42 42 52 58 62 62 63 64 63 59 56 55 56 55 52 48 46 44 40 34 28 23 17 16 17 17
13 14 23 17 24 20 25 75 56 56 48 35 41 46 50 53 53 49 47 42 42 54 58 60 60 62 61 60 58 58 60 59 56 54 53 48 43 37 33 28 25 23 23 22
Wind_Direction_850mb
128 146 213 216 194 154 148 183 246 248 265 259 257 273 282 221 215 346 341 327 327 327 325 325 319 292 262 245 235 234 215 195 200 218 224 234 190 193 210 193 184 195 196 187
40 239 228 177 159 165 167 222 258 287 244 240 294 287 303 179 115 46 340 336 333 328 330 329 319 285 256 246 240 224 201 195 203 212 215 247 201 201 191 186 184 198 197 189
182 219 104 150 156 164 201 196 206 232 317 240 314 286 70 69 97 333 349 339 338 334 330 335 347 344 280 251 202 183 182 199 206 212 209 209 193 172 183 184 191 197 198 196
236 254 188 163 193 148 238 195 195 201 25 260 350 292 294 155 272 352 324 1 357 353 6 6 17 17 22 127 148 181 189 199 204 215 211 204 185 164 176 189 194 199 206 199
243 187 163 163 197 169 214 126 141 146 186 332 255 206 255 175 232 327 336 8 3 9 31 31 44 62 74 95 122 157 183 189 198 209 217 209 214 202 189 191 200 204 215 214
232 246 177 192 101 160 137 102 58 63 120 230 213 206 261 189 217 302 318 11 1 17 42 49 52 73 75 85 107 126 145 165 170 194 202 219 223 217 203 188 200 204 235 220
334 216 189 144 98 42 91 85 323 143 214 237 139 230 254 171 193 198 307 23 356 21 40 56 59 65 75 81 82 95 127 145 157 165 158 200 212 203 194 189 190 187 191 199
169 258 170 183 175 181 174 163 160 212 214 265 310 232 230 161 172 180 252 75 10 23 55 74 74 75 81 76 75 74 88 101 108 120 150 158 177 175 186 207 190 183 196 197
151 265 110 87 129 148 176 190 134 107 57 284 238 270 200 155 193 189 162 89 35 10 51 75 95 96 96 93 93 93 101 96 99 111 144 141 148 160 166 185 180 186 186 188
207 118 147 141 95 40 175 146 120 54 163 245 264 271 229 191 183 186 161 150 145 244 17 74 102 107 112 114 117 130 146 114 111 119 116 126 124 129 153 168 185 190 199 195
138 115 183 127 204 170 145 186 67 116 156 191 273 256 203 172 166 177 170 162 168 195 191 154 132 131 130 129 134 134 124 119 124 133 130 125 120 120 130 132 130 137 151 167
178 130 173 186 223 177 177 179 159 149 187 106 297 272 143 166 160 161 165 163 170 178 164 155 150 143 132 124 122 123 124 128 122 124 126 139 132 140 144 140 126 151 162 166
178 172 104 26 1 131 206 192 140 111 114 189 161 256 144 160 161 167 159 166 170 167 160 146 142 137 127 120 117 115 124 126 126 139 138 144 146 150 144 134 133 130 132 140
138 144 166 190 191 139 189 177 174 145 163 165 223 251 224 206 193 178 174 172 172 173 164 154 149 145 139 132 130 124 120 118 121 123 125 128 124 127 126 122 121 126 134 148
144 185 171 215 165 151 170 174 180 202 181 187 208 206 219 210 201 191 183 172 176 176 178 175 173 167 155 137 142 139 136 134 138 139 140 137 135 139 139 133 129 124 128 135
221 165 145 210 196 205 232 191 196 212 213 262 202 254 217 206 197 174 184 180 182 183 183 180 182 174 167 161 159 157 149 141 135 132 128 124 127 126 117 112 117 128 143 137
159 139 139 211 131 130 272 219 190 198 207 206 211 229 156 181 198 187 187 191 190 186 186 187 186 184 179 173 170 168 156 148 148 148 144 141 138 135 130 130 132 139 136 134
149 129 111 133 129 219 241 110 199 206 208 212 221 182 181 198 210 205 200 196 199 196 190 191 187 187 182 180 179 172 163 156 157 156 150 144 138 135 134 137 144 143 141 141
244 132 132 149 194 296 234 199 158 173 250 206 220 188 190 188 184 226 212 207 204 200 195 192 188 187 185 178 181 175 171 168 167 163 156 147 141 140 141 147 148 146 145 148
92 24 125 157 164 204 220 188 173 163 288 196 200 189 157 150 185 228 209 207 204 203 196 191 188 188 189 183 183 181 179 176 175 172 165 158 153 154 155 157 154 150 145 138
129 84 188 160 188 277 240 148 153 140 236 165 187 176 159 186 199 219 194 196 197 192 190 188 189 190 189 188 186 187 187 184 178 178 175 172 168 166 165 166 164 164 162 162
160 151 174 121 123 238 154 115 169 216 204 177 178 185 186 193 192 208 182 187 185 186 188 190 191 192 192 193 192 192 192 185 186 186 184 183 180 177 177 179 183 181 186 189
185 191 174 181 190 233 184 184 191 186 181 187 182 187 193 184 183 171 174 181 185 188 190 193 195 194 196 197 198 198 193 192 193 193 192 192 190 189 190 193 195 199 203 205
241 176 164 125 209 221 200 214 206 212 200 195 184 184 186 185 181 171 170 183 188 191 194 195 197 201 201 201 203 203 200 199 201 200 199 199 200 199 197 197 199 202 208 214
174 144 160 268 280 66 236 219 215 213 207 184 176 183 185 187 185 186 180 183 191 195 198 201 204 206 207 206 206 206 203 206 206 207 208 208 207 206 206 205 208 209 209 213
189 171 188 208 179 175 222 223 216 214 212 194 181 179 187 190 191 187 188 186 189 196 200 203 209 214 214 211 212 212 209 211 212 212 212 213 215 214 215 216 217 219 219 222